Voltar ao catálogo

STARLINK-38165

AtivoComunicaçõesSSO
NORAD 100191·PAYLOAD·🇺🇸 United States

Lançado Aug 1, 2026 de Vandenberg Space Force Base

Loading…

Próximas Passagens (próximas 24 horas)

TLE

AtualizadoSource: Space-Track

Época: Sep 14, 2026, 07:15 UTC

1 A0191U 26175N   26257.30256367  .00118868  00000-0  78583-3 0  9992
2 A0191  97.2836  99.4785 0002118  73.2407 286.9091 15.75216432  8206

Acompanhe STARLINK-38165 em tempo real com AllMySat

Download on the App Store